| time (UTC) | temp F | wind direction | speed MPH | gust MPH | rain 1hr in | rain 24hr in | rain mn in | humidity % | barometer mb |
| 20260506232004 | 71 | 303 | 3.0 | 11.0 | 0.00 | 0.00 | 0.00 | 64 | 1018.9 |
| 20260506231545 | 71 | 226 | 3.0 | 11.0 | 0.00 | 0.00 | 0.00 | 63 | 1018.1 |
| 20260506231003 | 72 | 293 | 3.0 | 8.0 | 0.00 | 0.00 | 0.00 | 63 | 1019.0 |
| 20260506230042 | 71 | 259 | 1.0 | 8.0 | 0.00 | 0.00 | 0.00 | 62 | 1018.1 |
| 20260506230003 | 72 | 303 | 2.0 | 8.0 | 0.00 | 0.00 | 0.00 | 63 | 1018.9 |
| 20260506225003 | 72 | 307 | 3.0 | 9.0 | 0.00 | 0.00 | 0.00 | 62 | 1019.1 |
| 20260506224544 | 72 | 330 | 2.0 | 8.0 | 0.00 | 0.00 | 0.00 | 62 | 1018.3 |
| 20260506224003 | 72 | 298 | 3.0 | 9.0 | 0.00 | 0.00 | 0.00 | 62 | 1019.0 |
| 20260506223044 | 72 | 342 | 3.0 | 10.0 | 0.00 | 0.00 | 0.00 | 61 | 1018.3 |
| 20260506223003 | 73 | 305 | 3.0 | 10.0 | 0.00 | 0.00 | 0.00 | 61 | 1019.2 |
| 20260506222004 | 72 | 321 | 2.0 | 6.0 | 0.00 | 0.00 | 0.00 | 60 | 1019.3 |
| 20260506221545 | 72 | 68 | 2.0 | 6.0 | 0.00 | 0.00 | 0.00 | 59 | 1018.5 |
| 20260506221025 | 72 | 267 | 2.0 | 6.0 | 0.00 | 0.00 | 0.00 | 58 | 1019.4 |
| 20260506220045 | 72 | 0 | 1.0 | 6.0 | 0.00 | 0.00 | 0.00 | 57 | 1018.6 |
| 20260506220004 | 73 | 286 | 2.0 | 5.0 | 0.00 | 0.00 | 0.00 | 57 | 1019.4 |
| 20260506215004 | 73 | 280 | 2.0 | 6.0 | 0.00 | 0.00 | 0.00 | 57 | 1019.5 |
| 20260506214558 | 73 | 0 | 1.0 | 5.0 | 0.00 | 0.00 | 0.00 | 56 | 1018.7 |
| 20260506214003 | 73 | 174 | 1.0 | 4.0 | 0.00 | 0.00 | 0.00 | 58 | 1019.6 |
| 20260506213044 | 72 | 0 | 0.0 | 3.0 | 0.00 | 0.00 | 0.00 | 57 | 1018.8 |
| 20260506213004 | 72 | 193 | 1.0 | 3.0 | 0.00 | 0.00 | 0.00 | 59 | 1019.6 |
| 20260506212003 | 72 | 149 | 1.0 | 5.0 | 0.00 | 0.00 | 0.00 | 56 | 1019.8 |
| 20260506211538 | 72 | 163 | 1.0 | 5.0 | 0.00 | 0.00 | 0.00 | 56 | 1019.0 |
| 20260506211003 | 72 | 289 | 1.0 | 5.0 | 0.00 | 0.00 | 0.00 | 59 | 1019.8 |
| 20260506210040 | 71 | 0 | 0.0 | 7.0 | 0.00 | 0.00 | 0.00 | 58 | 1019.1 |
| 20260506210004 | 71 | 268 | 1.0 | 6.0 | 0.00 | 0.00 | 0.00 | 58 | 1019.9 |
| 20260506205025 | 71 | 263 | 2.0 | 7.0 | 0.00 | 0.00 | 0.00 | 58 | 1020.0 |
| 20260506204544 | 70 | 130 | 1.0 | 5.0 | 0.00 | 0.00 | 0.00 | 59 | 1019.1 |
| 20260506204003 | 71 | 317 | 2.0 | 5.0 | 0.00 | 0.00 | 0.00 | 58 | 1020.2 |
| 20260506203047 | 70 | 359 | 0.0 | 4.0 | 0.00 | 0.00 | 0.00 | 61 | 1019.5 |
| 20260506203003 | 70 | 282 | 1.0 | 4.0 | 0.00 | 0.00 | 0.00 | 61 | 1020.4 |
| 20260506202003 | 70 | 285 | 1.0 | 6.0 | 0.00 | 0.00 | 0.00 | 63 | 1020.4 |
| 20260506201544 | 69 | 271 | 2.0 | 6.0 | 0.00 | 0.00 | 0.00 | 60 | 1019.7 |
| 20260506201003 | 69 | 295 | 2.0 | 6.0 | 0.00 | 0.00 | 0.00 | 61 | 1020.5 |
| 20260506200038 | 68 | 0 | 1.0 | 4.0 | 0.00 | 0.00 | 0.00 | 63 | 1019.7 |
| 20260506200024 | 69 | 278 | 1.0 | 4.0 | 0.00 | 0.00 | 0.00 | 64 | 1020.6 |
| 20260506195003 | 68 | 287 | 2.0 | 6.0 | 0.00 | 0.00 | 0.00 | 64 | 1020.8 |
| 20260506194550 | 67 | 0 | 2.0 | 6.0 | 0.00 | 0.00 | 0.00 | 63 | 1020.0 |
| 20260506194003 | 68 | 315 | 2.0 | 5.0 | 0.00 | 0.00 | 0.00 | 65 | 1020.8 |
| 20260506193037 | 67 | 0 | 1.0 | 6.0 | 0.00 | 0.00 | 0.00 | 66 | 1020.1 |
| 20260506193003 | 67 | 267 | 2.0 | 6.0 | 0.00 | 0.00 | 0.00 | 66 | 1020.9 |
| 20260506192003 | 67 | 307 | 1.0 | 4.0 | 0.00 | 0.00 | 0.00 | 68 | 1021.0 |
| 20260506191542 | 66 | 255 | 1.0 | 4.0 | 0.00 | 0.00 | 0.00 | 67 | 1020.4 |
| 20260506191003 | 66 | 258 | 0.0 | 5.0 | 0.00 | 0.00 | 0.00 | 68 | 1021.2 |
| 20260506190044 | 65 | 276 | 2.0 | 6.0 | 0.00 | 0.00 | 0.00 | 69 | 1020.4 |
| 20260506190003 | 66 | 295 | 2.0 | 6.0 | 0.00 | 0.00 | 0.00 | 69 | 1021.3 |
| 20260506185003 | 66 | 324 | 1.0 | 6.0 | 0.00 | 0.00 | 0.00 | 68 | 1021.4 |
| 20260506184545 | 66 | 0 | 0.0 | 5.0 | 0.00 | 0.00 | 0.00 | 71 | 1020.5 |
| 20260506184024 | 66 | 282 | 1.0 | 5.0 | 0.00 | 0.00 | 0.00 | 68 | 1021.4 |
| 20260506183038 | 65 | 270 | 0.0 | 4.0 | 0.00 | 0.00 | 0.00 | 69 | 1020.5 |
| 20260506183004 | 66 | 331 | 1.0 | 4.0 | 0.00 | 0.00 | 0.00 | 70 | 1021.3 |
| 20260506182003 | 65 | 125 | 1.0 | 4.0 | 0.00 | 0.00 | 0.00 | 70 | 1021.4 |
| 20260506181545 | 64 | 0 | 0.0 | 4.0 | 0.00 | 0.00 | 0.00 | 70 | 1020.5 |
| 20260506181003 | 64 | 191 | 1.0 | 3.0 | 0.00 | 0.00 | 0.00 | 72 | 1021.4 |
| 20260506180051 | 63 | 0 | 1.0 | 6.0 | 0.00 | 0.00 | 0.00 | 70 | 1020.5 |
| 20260506180004 | 64 | 193 | 1.0 | 5.0 | 0.00 | 0.00 | 0.00 | 71 | 1021.3 |
| 20260506175024 | 64 | 221 | 1.0 | 6.0 | 0.00 | 0.00 | 0.00 | 72 | 1021.3 |
| 20260506174545 | 63 | 0 | 0.0 | 4.0 | 0.00 | 0.00 | 0.00 | 73 | 1020.5 |
| 20260506174004 | 63 | 118 | 2.0 | 6.0 | 0.00 | 0.00 | 0.00 | 72 | 1021.4 |
| 20260506173048 | 62 | 144 | 0.0 | 4.0 | 0.00 | 0.00 | 0.00 | 73 | 1020.5 |
| 20260506173003 | 62 | 213 | 1.0 | 4.0 | 0.00 | 0.00 | 0.00 | 74 | 1021.4 |
| 20260506172003 | 62 | 130 | 0.0 | 3.0 | 0.00 | 0.00 | 0.00 | 76 | 1021.4 |
| 20260506171553 | 61 | 0 | 0.0 | 0.0 | 0.00 | 0.00 | 0.00 | 77 | 1020.6 |
| 20260506171003 | 60 | 0 | 0.0 | 0.0 | 0.00 | 0.00 | 0.00 | 76 | 1021.5 |
| 20260506170046 | 59 | 0 | 0.0 | 0.0 | 0.00 | 0.00 | 0.00 | 77 | 1020.8 |
| 20260506170003 | 60 | 0 | 0.0 | 0.0 | 0.00 | 0.00 | 0.00 | 77 | 1021.5 |
| 20260506165003 | 60 | 126 | 1.0 | 3.0 | 0.00 | 0.00 | 0.00 | 78 | 1021.5 |
| 20260506164537 | 59 | 139 | 1.0 | 3.0 | 0.00 | 0.00 | 0.00 | 79 | 1020.7 |
| 20260506164024 | 59 | 170 | 1.0 | 2.0 | 0.00 | 0.00 | 0.00 | 81 | 1021.6 |
| 20260506163048 | 58 | 0 | 0.0 | 0.0 | 0.00 | 0.00 | 0.00 | 80 | 1020.6 |
| 20260506163003 | 59 | 0 | 0.0 | 0.0 | 0.00 | 0.00 | 0.00 | 80 | 1021.5 |
| 20260506162003 | 58 | 0 | 0.0 | 0.0 | 0.00 | 0.00 | 0.00 | 82 | 1021.5 |
| 20260506161546 | 58 | 0 | 0.0 | 0.0 | 0.00 | 0.00 | 0.00 | 82 | 1020.7 |
| 20260506161003 | 58 | 0 | 0.0 | 0.0 | 0.00 | 0.00 | 0.00 | 83 | 1021.7 |
| 20260506160045 | 57 | 0 | 0.0 | 0.0 | 0.00 | 0.00 | 0.00 | 84 | 1020.7 |
| 20260506160003 | 58 | 0 | 0.0 | 0.0 | 0.00 | 0.00 | 0.00 | 85 | 1021.5 |
| 20260506155003 | 57 | 0 | 0.0 | 0.0 | 0.00 | 0.00 | 0.00 | 85 | 1021.5 |
| 20260506154607 | 57 | 0 | 0.0 | 0.0 | 0.00 | 0.00 | 0.00 | 85 | 1020.6 |
| 20260506154003 | 57 | 0 | 0.0 | 0.0 | 0.00 | 0.00 | 0.00 | 85 | 1021.5 |
| 20260506153038 | 56 | 0 | 0.0 | 0.0 | 0.00 | 0.00 | 0.00 | 86 | 1020.6 |
| 20260506153003 | 57 | 0 | 0.0 | 0.0 | 0.00 | 0.00 | 0.00 | 86 | 1021.5 |
| 20260506152003 | 56 | 0 | 0.0 | 0.0 | 0.00 | 0.00 | 0.00 | 87 | 1021.4 |
| 20260506151545 | 55 | 0 | 0.0 | 0.0 | 0.00 | 0.00 | 0.00 | 87 | 1020.6 |
| 20260506151003 | 56 | 0 | 0.0 | 0.0 | 0.00 | 0.00 | 0.00 | 88 | 1021.4 |
| 20260506150038 | 55 | 0 | 0.0 | 0.0 | 0.00 | 0.00 | 0.00 | 88 | 1020.6 |
| 20260506150003 | 56 | 0 | 0.0 | 0.0 | 0.00 | 0.00 | 0.00 | 89 | 1021.4 |
| 20260506145024 | 55 | 0 | 0.0 | 0.0 | 0.00 | 0.00 | 0.00 | 90 | 1021.3 |
| 20260506144555 | 55 | 0 | 0.0 | 0.0 | 0.00 | 0.00 | 0.00 | 89 | 1020.5 |
| 20260506144024 | 55 | 0 | 0.0 | 0.0 | 0.00 | 0.00 | 0.00 | 90 | 1021.3 |
| 20260506143041 | 54 | 0 | 0.0 | 0.0 | 0.00 | 0.00 | 0.00 | 90 | 1020.6 |
| 20260506143003 | 54 | 0 | 0.0 | 0.0 | 0.00 | 0.00 | 0.00 | 90 | 1021.3 |
| 20260506142024 | 54 | 0 | 0.0 | 0.0 | 0.00 | 0.00 | 0.00 | 91 | 1021.3 |
| 20260506141542 | 54 | 0 | 0.0 | 0.0 | 0.00 | 0.00 | 0.00 | 91 | 1020.4 |
| 20260506141003 | 54 | 0 | 0.0 | 0.0 | 0.00 | 0.00 | 0.00 | 91 | 1021.2 |
| 20260506140054 | 53 | 0 | 0.0 | 0.0 | 0.00 | 0.00 | 0.00 | 91 | 1020.2 |
| 20260506140003 | 54 | 0 | 0.0 | 0.0 | 0.00 | 0.00 | 0.00 | 91 | 1021.1 |
| 20260506135003 | 53 | 0 | 0.0 | 0.0 | 0.00 | 0.00 | 0.00 | 92 | 1021.0 |
| 20260506134544 | 53 | 0 | 0.0 | 0.0 | 0.00 | 0.00 | 0.00 | 91 | 1020.0 |
| 20260506134003 | 53 | 0 | 0.0 | 0.0 | 0.00 | 0.00 | 0.00 | 92 | 1020.8 |
| 20260506133049 | 52 | 0 | 0.0 | 0.0 | 0.00 | 0.00 | 0.00 | 92 | 1019.8 |
| 20260506133003 | 53 | 0 | 0.0 | 0.0 | 0.00 | 0.00 | 0.00 | 92 | 1020.7 |
| 20260506132003 | 53 | 0 | 0.0 | 0.0 | 0.00 | 0.00 | 0.00 | 92 | 1020.6 |
| 20260506131543 | 52 | 0 | 0.0 | 0.0 | 0.00 | 0.00 | 0.00 | 92 | 1019.7 |
| 20260506131003 | 52 | 0 | 0.0 | 0.0 | 0.00 | 0.00 | 0.00 | 93 | 1020.6 |
| 20260506130046 | 52 | 0 | 0.0 | 0.0 | 0.00 | 0.00 | 0.00 | 92 | 1019.8 |
| 20260506130004 | 52 | 0 | 0.0 | 0.0 | 0.00 | 0.00 | 0.00 | 93 | 1020.5 |
| 20260506125003 | 52 | 0 | 0.0 | 0.0 | 0.00 | 0.00 | 0.00 | 93 | 1020.5 |
| 20260506124545 | 51 | 0 | 0.0 | 0.0 | 0.00 | 0.00 | 0.00 | 92 | 1019.6 |
| 20260506124003 | 51 | 0 | 0.0 | 0.0 | 0.00 | 0.00 | 0.00 | 92 | 1020.5 |
| 20260506123041 | 51 | 0 | 0.0 | 0.0 | 0.00 | 0.00 | 0.00 | 92 | 1019.6 |
| 20260506123003 | 51 | 0 | 0.0 | 0.0 | 0.00 | 0.00 | 0.00 | 92 | 1020.5 |
| 20260506122003 | 51 | 0 | 0.0 | 0.0 | 0.00 | 0.00 | 0.00 | 92 | 1020.4 |
| 20260506121538 | 50 | 0 | 0.0 | 0.0 | 0.00 | 0.00 | 0.00 | 92 | 1019.6 |
| 20260506121003 | 50 | 0 | 0.0 | 0.0 | 0.00 | 0.00 | 0.00 | 92 | 1020.4 |
| 20260506120049 | 49 | 0 | 0.0 | 0.0 | 0.00 | 0.00 | 0.00 | 91 | 1019.5 |
| 20260506120004 | 50 | 0 | 0.0 | 0.0 | 0.00 | 0.00 | 0.00 | 91 | 1020.3 |
| 20260506115024 | 50 | 0 | 0.0 | 0.0 | 0.00 | 0.00 | 0.00 | 91 | 1020.2 |
| 20260506114548 | 50 | 0 | 0.0 | 0.0 | 0.00 | 0.01 | 0.00 | 91 | 1019.5 |
| 20260506114003 | 50 | 0 | 0.0 | 0.0 | 0.00 | 0.01 | 0.00 | 91 | 1020.2 |
| 20260506113049 | 50 | 0 | 0.0 | 0.0 | 0.00 | 0.01 | 0.00 | 90 | 1019.3 |
| 20260506113003 | 50 | 0 | 0.0 | 0.0 | 0.00 | 0.01 | 0.00 | 90 | 1020.2 |
| 20260506112024 | 51 | 0 | 0.0 | 0.0 | 0.00 | 0.01 | 0.00 | 90 | 1020.2 |
| 20260506111543 | 50 | 0 | 0.0 | 0.0 | 0.00 | 0.01 | 0.00 | 90 | 1019.4 |
| 20260506111003 | 51 | 0 | 0.0 | 0.0 | 0.00 | 0.01 | 0.00 | 90 | 1020.2 |
| 20260506110039 | 51 | 0 | 0.0 | 0.0 | 0.00 | 0.01 | 0.00 | 89 | 1019.2 |
| 20260506110003 | 51 | 0 | 0.0 | 0.0 | 0.00 | 0.01 | 0.00 | 90 | 1020.0 |
| 20260506105003 | 52 | 0 | 0.0 | 0.0 | 0.00 | 0.01 | 0.00 | 89 | 1019.9 |
| 20260506104545 | 51 | 0 | 0.0 | 0.0 | 0.00 | 0.02 | 0.00 | 88 | 1019.1 |
| 20260506104003 | 52 | 0 | 0.0 | 0.0 | 0.00 | 0.01 | 0.00 | 89 | 1019.8 |
| 20260506103044 | 52 | 0 | 0.0 | 0.0 | 0.00 | 0.02 | 0.00 | 88 | 1019.1 |
| 20260506103003 | 53 | 0 | 0.0 | 0.0 | 0.00 | 0.01 | 0.00 | 88 | 1019.9 |
| 20260506102003 | 53 | 0 | 0.0 | 0.0 | 0.00 | 0.02 | 0.00 | 88 | 1019.8 |
| 20260506101550 | 53 | 0 | 0.0 | 0.0 | 0.00 | 0.02 | 0.00 | 87 | 1018.9 |
| 20260506101003 | 54 | 0 | 0.0 | 0.0 | 0.00 | 0.02 | 0.00 | 87 | 1019.8 |
| 20260506100043 | 54 | 0 | 0.0 | 0.0 | 0.00 | 0.02 | 0.00 | 87 | 1019.0 |
| 20260506100024 | 54 | 0 | 0.0 | 0.0 | 0.00 | 0.02 | 0.00 | 87 | 1019.8 |
| 20260506095024 | 55 | 0 | 0.0 | 0.0 | 0.00 | 0.02 | 0.00 | 87 | 1019.8 |
| 20260506094544 | 55 | 0 | 0.0 | 0.0 | 0.00 | 0.02 | 0.00 | 86 | 1019.0 |
| 20260506094003 | 55 | 0 | 0.0 | 0.0 | 0.00 | 0.02 | 0.00 | 87 | 1019.8 |
| 20260506093041 | 55 | 0 | 0.0 | 0.0 | 0.00 | 0.02 | 0.00 | 86 | 1019.0 |
| 20260506093003 | 56 | 0 | 0.0 | 0.0 | 0.00 | 0.02 | 0.00 | 86 | 1019.8 |
| 20260506092024 | 56 | 0 | 0.0 | 0.0 | 0.00 | 0.02 | 0.00 | 86 | 1019.7 |
| 20260506091537 | 55 | 0 | 0.0 | 0.0 | 0.00 | 0.02 | 0.00 | 86 | 1018.8 |
| 20260506091003 | 56 | 0 | 0.0 | 0.0 | 0.00 | 0.02 | 0.00 | 86 | 1019.7 |
| 20260506090043 | 55 | 0 | 0.0 | 0.0 | 0.00 | 0.02 | 0.00 | 86 | 1018.8 |
| 20260506090003 | 56 | 0 | 0.0 | 0.0 | 0.00 | 0.02 | 0.00 | 86 | 1019.7 |
| 20260506085003 | 56 | 0 | 0.0 | 0.0 | 0.00 | 0.02 | 0.00 | 86 | 1019.7 |
| 20260506084545 | 55 | 0 | 0.0 | 0.0 | 0.00 | 0.02 | 0.00 | 86 | 1018.8 |
| 20260506084003 | 56 | 0 | 0.0 | 0.0 | 0.00 | 0.02 | 0.00 | 86 | 1019.7 |
| 20260506083044 | 55 | 0 | 0.0 | 0.0 | 0.00 | 0.02 | 0.00 | 86 | 1018.9 |
| 20260506083025 | 56 | 0 | 0.0 | 0.0 | 0.00 | 0.02 | 0.00 | 86 | 1019.7 |
| 20260506082004 | 56 | 0 | 0.0 | 0.0 | 0.00 | 0.02 | 0.00 | 86 | 1019.8 |
| 20260506081543 | 55 | 0 | 0.0 | 0.0 | 0.00 | 0.02 | 0.00 | 85 | 1018.9 |
| 20260506081003 | 56 | 0 | 0.0 | 0.0 | 0.00 | 0.02 | 0.00 | 86 | 1019.7 |
| 20260506073040 | 55 | 0 | 0.0 | 0.0 | 0.00 | 0.02 | 0.00 | 84 | 1018.7 |
| 20260506073003 | 56 | 0 | 0.0 | 0.0 | 0.00 | 0.02 | 0.00 | 85 | 1019.5 |
| 20260506072003 | 56 | 0 | 0.0 | 0.0 | 0.00 | 0.02 | 0.00 | 84 | 1019.6 |
| 20260506071544 | 55 | 0 | 0.0 | 0.0 | 0.00 | 0.02 | 0.00 | 84 | 1018.6 |
| 20260506071003 | 56 | 0 | 0.0 | 0.0 | 0.00 | 0.02 | 0.00 | 84 | 1019.4 |
| 20260506062003 | 56 | 0 | 0.0 | 0.0 | 0.00 | 0.02 | 0.02 | 83 | 1019.2 |
| 20260506061537 | 55 | 0 | 0.0 | 0.0 | 0.00 | 0.02 | 0.02 | 82 | 1018.2 |
| 20260506061003 | 56 | 0 | 0.0 | 0.0 | 0.00 | 0.02 | 0.02 | 83 | 1019.1 |
| 20260506051003 | 56 | 0 | 0.0 | 0.0 | 0.00 | 0.02 | 0.02 | 82 | 1018.7 |
| 20260506045003 | 56 | 0 | 0.0 | 0.0 | 0.00 | 0.02 | 0.02 | 82 | 1018.5 |
| 20260506044539 | 56 | 0 | 0.0 | 0.0 | 0.00 | 0.02 | 0.02 | 81 | 1017.5 |
| 20260506044003 | 56 | 0 | 0.0 | 0.0 | 0.00 | 0.02 | 0.02 | 82 | 1018.3 |
| 20260506043043 | 56 | 0 | 0.0 | 0.0 | 0.00 | 0.02 | 0.02 | 81 | 1017.5 |
| 20260506043003 | 56 | 0 | 0.0 | 0.0 | 0.00 | 0.02 | 0.02 | 82 | 1018.3 |
| 20260506042003 | 57 | 0 | 0.0 | 0.0 | 0.00 | 0.02 | 0.02 | 81 | 1018.2 |
| 20260506041545 | 56 | 0 | 0.0 | 0.0 | 0.00 | 0.02 | 0.02 | 81 | 1017.4 |
| 20260506041003 | 57 | 0 | 0.0 | 0.0 | 0.00 | 0.02 | 0.02 | 81 | 1018.1 |
| 20260506040047 | 56 | 0 | 0.0 | 0.0 | 0.00 | 0.02 | 0.02 | 80 | 1017.1 |
| 20260506040003 | 57 | 0 | 0.0 | 0.0 | 0.00 | 0.02 | 0.02 | 81 | 1017.9 |
| 20260506035004 | 57 | 343 | 1.0 | 5.0 | 0.00 | 0.02 | 0.02 | 80 | 1017.9 |
| 20260506034539 | 56 | 0 | 0.0 | 6.0 | 0.00 | 0.02 | 0.02 | 80 | 1017.0 |
| 20260506034003 | 57 | 352 | 1.0 | 6.0 | 0.00 | 0.02 | 0.02 | 80 | 1017.7 |
| 20260506033041 | 57 | 0 | 2.0 | 6.0 | 0.00 | 0.02 | 0.02 | 79 | 1016.6 |
| 20260506033004 | 57 | 340 | 2.0 | 6.0 | 0.00 | 0.02 | 0.02 | 80 | 1017.5 |
| 20260506032003 | 57 | 336 | 0.0 | 4.0 | 0.00 | 0.02 | 0.02 | 79 | 1017.5 |
| 20260506031544 | 57 | 0 | 1.0 | 4.0 | 0.00 | 0.02 | 0.02 | 79 | 1016.5 |
| 20260506031003 | 57 | 297 | 0.0 | 2.0 | 0.00 | 0.02 | 0.02 | 79 | 1017.4 |
| 20260506030044 | 57 | 0 | 1.0 | 4.0 | 0.00 | 0.02 | 0.02 | 79 | 1016.4 |
| 20260506030003 | 58 | 320 | 1.0 | 4.0 | 0.00 | 0.02 | 0.02 | 79 | 1017.3 |
| 20260506025003 | 58 | 315 | 2.0 | 5.0 | 0.00 | 0.02 | 0.02 | 78 | 1017.1 |
| 20260506024545 | 58 | 0 | 1.0 | 5.0 | 0.00 | 0.02 | 0.02 | 77 | 1016.2 |
| 20260506024003 | 59 | 329 | 2.0 | 5.0 | 0.00 | 0.02 | 0.02 | 77 | 1017.0 |
| 20260506023055 | 59 | 329 | 2.0 | 6.0 | 0.00 | 0.02 | 0.02 | 75 | 1016.0 |
| 20260506023003 | 60 | 325 | 2.0 | 5.0 | 0.00 | 0.02 | 0.02 | 76 | 1016.8 |
| 20260506022003 | 60 | 330 | 3.0 | 7.0 | 0.00 | 0.02 | 0.02 | 76 | 1016.8 |
| 20260506021550 | 60 | 289 | 3.0 | 9.0 | 0.00 | 0.02 | 0.02 | 75 | 1016.0 |
| 20260506021003 | 60 | 346 | 4.0 | 9.0 | 0.00 | 0.02 | 0.02 | 74 | 1016.8 |
| 20260506020047 | 60 | 336 | 2.0 | 8.0 | 0.00 | 0.02 | 0.02 | 74 | 1015.9 |
| 20260506020024 | 60 | 341 | 3.0 | 8.0 | 0.00 | 0.02 | 0.02 | 75 | 1016.8 |
| 20260506015003 | 60 | 330 | 3.0 | 6.0 | 0.00 | 0.02 | 0.02 | 74 | 1016.8 |
| 20260506014545 | 60 | 319 | 2.0 | 6.0 | 0.00 | 0.02 | 0.02 | 73 | 1015.9 |
| 20260506014003 | 61 | 336 | 3.0 | 7.0 | 0.00 | 0.02 | 0.02 | 74 | 1016.8 |
| 20260506013043 | 60 | 325 | 2.0 | 6.0 | 0.00 | 0.02 | 0.02 | 72 | 1016.0 |
| 20260506013003 | 61 | 324 | 3.0 | 6.0 | 0.00 | 0.02 | 0.02 | 73 | 1016.9 |
| 20260506012003 | 61 | 332 | 3.0 | 8.0 | 0.00 | 0.02 | 0.02 | 71 | 1016.7 |
| 20260506011545 | 61 | 335 | 2.0 | 7.0 | 0.00 | 0.02 | 0.02 | 71 | 1015.8 |
| 20260506011003 | 61 | 340 | 3.0 | 7.0 | 0.00 | 0.02 | 0.02 | 71 | 1016.7 |
| 20260506010051 | 61 | 332 | 2.0 | 12.0 | 0.00 | 0.02 | 0.02 | 70 | 1015.8 |
| 20260506010003 | 62 | 330 | 3.0 | 12.0 | 0.00 | 0.02 | 0.02 | 70 | 1016.7 |
| 20260506005003 | 62 | 331 | 3.0 | 9.0 | 0.00 | 0.02 | 0.02 | 70 | 1016.7 |
| 20260506004546 | 61 | 352 | 2.0 | 10.0 | 0.00 | 0.02 | 0.02 | 70 | 1015.8 |
| 20260506004024 | 61 | 330 | 3.0 | 10.0 | 0.00 | 0.02 | 0.02 | 71 | 1016.6 |
| 20260506003037 | 61 | 309 | 4.0 | 11.0 | 0.00 | 0.02 | 0.02 | 71 | 1015.7 |
| 20260506003003 | 61 | 339 | 4.0 | 11.0 | 0.00 | 0.02 | 0.02 | 72 | 1016.6 |
| 20260506002003 | 62 | 319 | 3.0 | 11.0 | 0.00 | 0.02 | 0.02 | 70 | 1016.5 |
| 20260506001548 | 61 | 218 | 3.0 | 9.0 | 0.00 | 0.02 | 0.02 | 72 | 1015.5 |
| 20260506001003 | 62 | 323 | 4.0 | 10.0 | 0.00 | 0.02 | 0.02 | 71 | 1016.5 |
| 20260506000045 | 61 | 236 | 4.0 | 11.0 | 0.00 | 0.02 | 0.02 | 72 | 1015.5 |
| 20260506000003 | 62 | 332 | 4.0 | 11.0 | 0.00 | 0.02 | 0.02 | 72 | 1016.4 |
| 20260505235003 | 62 | 302 | 3.0 | 12.0 | 0.00 | 0.02 | 0.02 | 73 | 1016.5 |
| 20260505234603 | 61 | 316 | 3.0 | 12.0 | 0.00 | 0.02 | 0.02 | 71 | 1015.6 |
| 20260505234003 | 62 | 318 | 4.0 | 10.0 | 0.00 | 0.02 | 0.02 | 72 | 1016.5 |
| 20260505233044 | 61 | 249 | 4.0 | 10.0 | 0.00 | 0.02 | 0.02 | 71 | 1015.8 |
| 20260505233004 | 62 | 332 | 4.0 | 10.0 | 0.00 | 0.02 | 0.02 | 71 | 1016.5 |